Time,TemperatureF,DewpointF,PressureIn,WindDirection,WindDirectionDegrees,WindSpeedMPH,WindSpeedGustMPH,Humidity,HourlyPrecipIn,Conditions,Clouds,dailyrainin,SoftwareType,DateUTC
2013-03-30 00:00:00,42.8,24.5,30.21,WSW,248,6.7,8.1,48,0.00,,,0.00,WUHU216HW,2013-03-30 07:00:00,
2013-03-30 00:05:00,42.8,24.5,30.21,WSW,248,4.0,11.2,48,0.00,,,0.00,WUHU216HW,2013-03-30 07:05:00,
2013-03-30 00:10:00,42.8,24.5,30.21,West,270,6.3,11.2,48,0.00,,,0.00,WUHU216HW,2013-03-30 07:10:00,
2013-03-30 00:15:00,42.8,24.5,30.20,WSW,248,6.0,8.1,48,0.00,,,0.00,WUHU216HW,2013-03-30 07:15:00,
2013-03-30 00:20:00,42.8,24.5,30.20,WSW,248,6.0,8.1,48,0.00,,,0.00,WUHU216HW,2013-03-30 07:20:00,
2013-03-30 00:25:00,42.8,23.9,30.20,WSW,248,5.8,7.6,47,0.00,,,0.00,WUHU216HW,2013-03-30 07:25:00,
2013-03-30 00:30:00,43.0,24.1,30.20,SSW,203,5.8,7.6,47,0.00,,,0.00,WUHU216HW,2013-03-30 07:30:00,
2013-03-30 00:35:00,43.0,24.7,30.20,WSW,248,5.8,9.4,48,0.00,,,0.00,WUHU216HW,2013-03-30 07:35:00,
2013-03-30 00:40:00,42.8,24.5,30.20,SSW,203,5.1,9.4,48,0.00,,,0.00,WUHU216HW,2013-03-30 07:40:00,
2013-03-30 00:45:00,42.8,24.5,30.20,West,270,6.3,8.3,48,0.00,,,0.00,WUHU216HW,2013-03-30 07:45:00,
2013-03-30 00:50:00,42.7,24.3,30.20,WSW,248,4.0,7.4,48,0.00,,,0.00,WUHU216HW,2013-03-30 07:50:00,
2013-03-30 00:55:00,42.3,23.9,30.20,SW,225,6.9,8.3,48,0.00,,,0.00,WUHU216HW,2013-03-30 07:55:00,
2013-03-30 01:00:00,42.1,23.8,30.20,SW,225,4.5,8.3,48,0.00,,,0.00,WUHU216HW,2013-03-30 08:00:00,
2013-03-30 01:05:00,42.1,23.8,30.20,West,270,4.7,8.5,48,0.00,,,0.00,WUHU216HW,2013-03-30 08:05:00,
2013-03-30 01:10:00,41.9,23.6,30.20,West,270,7.4,8.9,48,0.00,,,0.00,WUHU216HW,2013-03-30 08:10:00,
2013-03-30 01:15:00,41.9,24.1,30.20,SW,225,7.4,8.9,49,0.00,,,0.00,WUHU216HW,2013-03-30 08:15:00,
2013-03-30 01:20:00,41.9,24.1,30.19,WNW,293,4.0,8.1,49,0.00,,,0.00,WUHU216HW,2013-03-30 08:20:00,
2013-03-30 01:25:00,41.8,23.9,30.20,WSW,248,4.0,8.3,49,0.00,,,0.00,WUHU216HW,2013-03-30 08:25:00,
2013-03-30 01:30:00,41.8,23.9,30.19,SSW,203,2.2,8.3,49,0.00,,,0.00,WUHU216HW,2013-03-30 08:30:00,
2013-03-30 01:35:00,41.4,23.6,30.20,SE,135,0.7,5.1,49,0.00,,,0.00,WUHU216HW,2013-03-30 08:35:00,
2013-03-30 01:40:00,41.2,23.4,30.20,WNW,293,1.6,4.5,49,0.00,,,0.00,WUHU216HW,2013-03-30 08:40:00,
2013-03-30 01:45:00,40.7,23.0,30.19,SSE,158,1.1,1.8,49,0.00,,,0.00,WUHU216HW,2013-03-30 08:45:00,
2013-03-30 01:50:00,40.5,22.8,30.20,West,270,3.8,5.1,49,0.00,,,0.00,WUHU216HW,2013-03-30 08:50:00,
2013-03-30 01:55:00,40.5,22.8,30.19,West,270,3.1,6.3,49,0.00,,,0.00,WUHU216HW,2013-03-30 08:55:00,
2013-03-30 02:00:00,40.5,23.3,30.19,WSW,248,5.4,9.2,50,0.00,,,0.00,WUHU216HW,2013-03-30 09:00:00,
2013-03-30 02:05:00,40.7,23.4,30.19,SW,225,7.6,9.2,50,0.00,,,0.00,WUHU216HW,2013-03-30 09:05:00,
2013-03-30 02:10:00,41.0,23.2,30.19,WNW,293,6.3,8.7,49,0.00,,,0.00,WUHU216HW,2013-03-30 09:10:00,
2013-03-30 02:15:00,41.4,23.6,30.19,WNW,293,5.4,8.5,49,0.00,,,0.00,WUHU216HW,2013-03-30 09:15:00,
2013-03-30 02:20:00,41.8,23.9,30.19,WSW,248,6.3,9.8,49,0.00,,,0.00,WUHU216HW,2013-03-30 09:20:00,
2013-03-30 02:25:00,41.8,23.9,30.19,WSW,248,5.4,9.8,49,0.00,,,0.00,WUHU216HW,2013-03-30 09:25:00,
2013-03-30 02:30:00,41.6,23.8,30.19,West,270,7.6,8.5,49,0.00,,,0.00,WUHU216HW,2013-03-30 09:30:00,
2013-03-30 02:34:00,41.4,23.6,30.19,SSW,203,6.9,8.3,49,0.00,,,0.00,WUHU216HW,2013-03-30 09:34:00,
2013-03-30 02:39:00,41.4,23.6,30.19,West,270,7.4,8.3,49,0.00,,,0.00,WUHU216HW,2013-03-30 09:39:00,
2013-03-30 02:44:00,41.2,23.4,30.20,SW,225,4.3,7.8,49,0.00,,,0.00,WUHU216HW,2013-03-30 09:44:00,
2013-03-30 02:49:00,41.2,23.4,30.19,WSW,248,5.4,8.5,49,0.00,,,0.00,WUHU216HW,2013-03-30 09:49:00,
2013-03-30 02:54:00,41.4,23.6,30.19,SW,225,4.5,9.8,49,0.00,,,0.00,WUHU216HW,2013-03-30 09:54:00,
2013-03-30 02:59:00,41.4,23.6,30.19,SSW,203,6.9,9.8,49,0.00,,,0.00,WUHU216HW,2013-03-30 09:59:00,
2013-03-30 03:04:00,41.4,23.6,30.19,SSW,203,4.3,7.8,49,0.00,,,0.00,WUHU216HW,2013-03-30 10:04:00,
2013-03-30 03:09:00,41.2,23.4,30.19,WSW,248,5.6,7.8,49,0.00,,,0.00,WUHU216HW,2013-03-30 10:09:00,
2013-03-30 03:14:00,41.0,23.2,30.19,WSW,248,6.3,9.4,49,0.00,,,0.00,WUHU216HW,2013-03-30 10:14:00,
2013-03-30 03:19:00,41.0,23.2,30.19,WSW,248,9.2,9.6,49,0.00,,,0.00,WUHU216HW,2013-03-30 10:19:00,
2013-03-30 03:24:00,41.0,23.2,30.19,West,270,7.2,9.6,49,0.00,,,0.00,WUHU216HW,2013-03-30 10:24:00,
2013-03-30 03:29:00,40.7,23.0,30.19,SW,225,5.8,9.2,49,0.00,,,0.00,WUHU216HW,2013-03-30 10:29:00,
2013-03-30 03:34:00,40.7,23.0,30.19,SW,225,3.6,9.2,49,0.00,,,0.00,WUHU216HW,2013-03-30 10:34:00,
2013-03-30 03:39:00,40.3,22.6,30.19,WSW,248,7.2,7.4,49,0.00,,,0.00,WUHU216HW,2013-03-30 10:39:00,
2013-03-30 03:44:00,40.1,22.4,30.19,SW,225,7.4,8.7,49,0.00,,,0.00,WUHU216HW,2013-03-30 10:44:00,
2013-03-30 03:49:00,40.0,22.2,30.19,WSW,248,6.7,8.7,49,0.00,,,0.00,WUHU216HW,2013-03-30 10:49:00,
2013-03-30 03:54:00,40.0,22.8,30.19,WSW,248,8.7,9.8,50,0.00,,,0.00,WUHU216HW,2013-03-30 10:54:00,
2013-03-30 03:59:00,40.0,22.8,30.19,SW,225,6.7,9.8,50,0.00,,,0.00,WUHU216HW,2013-03-30 10:59:00,
2013-03-30 04:04:00,40.5,23.3,30.19,WSW,248,3.4,7.8,50,0.00,,,0.00,WUHU216HW,2013-03-30 11:04:00,
2013-03-30 04:09:00,40.7,23.4,30.19,WSW,248,2.7,7.8,50,0.00,,,0.00,WUHU216HW,2013-03-30 11:09:00,
2013-03-30 04:14:00,40.9,23.0,30.18,WSW,248,2.5,7.8,49,0.00,,,0.00,WUHU216HW,2013-03-30 11:14:00,
2013-03-30 04:19:00,40.7,23.4,30.18,West,270,5.4,6.0,50,0.00,,,0.00,WUHU216HW,2013-03-30 11:19:00,
2013-03-30 04:24:00,40.3,23.1,30.19,SW,225,1.8,6.0,50,0.00,,,0.00,WUHU216HW,2013-03-30 11:24:00,
2013-03-30 04:29:00,40.1,22.4,30.19,SW,225,2.9,5.8,49,0.00,,,0.00,WUHU216HW,2013-03-30 11:29:00,
2013-03-30 04:34:00,40.0,22.8,30.19,West,270,2.5,6.3,50,0.00,,,0.00,WUHU216HW,2013-03-30 11:34:00,
2013-03-30 04:39:00,39.8,22.6,30.18,WNW,293,0.4,6.3,50,0.00,,,0.00,WUHU216HW,2013-03-30 11:39:00,
2013-03-30 04:44:00,39.6,22.5,30.18,SSE,158,0.7,3.6,50,0.00,,,0.00,WUHU216HW,2013-03-30 11:44:00,
2013-03-30 04:49:00,39.4,22.8,30.18,South,180,1.8,3.4,51,0.00,,,0.00,WUHU216HW,2013-03-30 11:49:00,
2013-03-30 04:54:00,39.2,22.6,30.18,SE,135,1.8,2.2,51,0.00,,,0.00,WUHU216HW,2013-03-30 11:54:00,
2013-03-30 04:59:00,38.9,22.2,30.19,East,90,2.5,2.5,51,0.00,,,0.00,WUHU216HW,2013-03-30 11:59:00,
2013-03-30 05:04:00,38.5,22.3,30.18,NNW,338,0.7,2.5,52,0.00,,,0.00,WUHU216HW,2013-03-30 12:04:00,
2013-03-30 05:09:00,38.3,22.6,30.18,North,0,0.4,2.5,53,0.00,,,0.00,WUHU216HW,2013-03-30 12:09:00,
2013-03-30 05:14:00,38.2,22.5,30.18,NNW,338,0.9,1.8,53,0.00,,,0.00,WUHU216HW,2013-03-30 12:14:00,
2013-03-30 05:19:00,38.0,22.3,30.18,WNW,293,0.0,1.8,53,0.00,,,0.00,WUHU216HW,2013-03-30 12:19:00,
2013-03-30 05:24:00,37.8,22.6,30.18,SSW,203,0.0,1.8,54,0.00,,,0.00,WUHU216HW,2013-03-30 12:24:00,
2013-03-30 05:29:00,37.8,22.6,30.18,SSW,203,0.0,1.1,54,0.00,,,0.00,WUHU216HW,2013-03-30 12:29:00,
2013-03-30 05:34:00,37.4,22.7,30.18,SSW,203,0.0,1.1,55,0.00,,,0.00,WUHU216HW,2013-03-30 12:34:00,
2013-03-30 05:39:00,37.3,22.5,30.19,SSW,203,0.4,1.1,55,0.00,,,0.00,WUHU216HW,2013-03-30 12:39:00,
2013-03-30 05:44:00,36.9,22.6,30.19,SSW,203,0.4,1.1,56,0.00,,,0.00,WUHU216HW,2013-03-30 12:44:00,
2013-03-30 05:49:00,36.7,22.5,30.19,South,180,1.8,1.8,56,0.00,,,0.00,WUHU216HW,2013-03-30 12:49:00,
2013-03-30 05:54:00,36.4,22.6,30.19,South,180,1.8,2.5,57,0.00,,,0.00,WUHU216HW,2013-03-30 12:54:00,
2013-03-30 05:59:00,36.2,22.4,30.19,South,180,1.8,2.5,57,0.00,,,0.00,WUHU216HW,2013-03-30 12:59:00,
2013-03-30 06:04:00,36.0,22.2,30.19,South,180,0.0,2.0,57,0.00,,,0.00,WUHU216HW,2013-03-30 13:04:00,
2013-03-30 06:09:00,35.8,22.5,30.19,SSE,158,0.0,1.8,58,0.00,,,0.00,WUHU216HW,2013-03-30 13:09:00,
2013-03-30 06:14:00,35.6,22.8,30.19,South,180,1.3,1.3,59,0.00,,,0.00,WUHU216HW,2013-03-30 13:14:00,
2013-03-30 06:19:00,35.5,22.6,30.19,SSE,158,1.3,1.8,59,0.00,,,0.00,WUHU216HW,2013-03-30 13:19:00,
2013-03-30 06:24:00,35.3,22.4,30.19,South,180,1.1,2.2,59,0.00,,,0.00,WUHU216HW,2013-03-30 13:24:00,
2013-03-30 06:29:00,35.3,22.9,30.19,South,180,1.1,2.2,60,0.00,,,0.00,WUHU216HW,2013-03-30 13:29:00,
2013-03-30 06:34:00,35.1,22.7,30.19,SSE,158,0.4,1.3,60,0.00,,,0.00,WUHU216HW,2013-03-30 13:34:00,
2013-03-30 06:39:00,34.9,22.5,30.19,SSE,158,0.0,1.3,60,0.00,,,0.00,WUHU216HW,2013-03-30 13:39:00,
2013-03-30 06:44:00,34.9,22.5,30.19,SSE,158,0.0,0.4,60,0.00,,,0.00,WUHU216HW,2013-03-30 13:44:00,
2013-03-30 06:49:00,34.9,22.5,30.19,SSE,158,0.9,0.9,60,0.00,,,0.00,WUHU216HW,2013-03-30 13:49:00,
2013-03-30 06:54:00,35.1,23.0,30.19,South,180,0.7,1.1,61,0.00,,,0.00,WUHU216HW,2013-03-30 13:54:00,
2013-03-30 06:59:00,35.5,23.4,30.19,South,180,0.0,1.1,61,0.00,,,0.00,WUHU216HW,2013-03-30 13:59:00,
2013-03-30 07:04:00,35.6,23.6,30.19,SSE,158,0.7,1.1,61,0.00,,,0.00,WUHU216HW,2013-03-30 14:04:00,
2013-03-30 07:09:00,35.8,23.8,30.19,SE,135,0.4,1.3,61,0.00,,,0.00,WUHU216HW,2013-03-30 14:09:00,
2013-03-30 07:14:00,36.0,24.0,30.19,SE,135,0.0,1.3,61,0.00,,,0.00,WUHU216HW,2013-03-30 14:14:00,
2013-03-30 07:19:00,36.4,24.2,30.19,SSE,158,0.4,0.9,61,0.00,,,0.00,WUHU216HW,2013-03-30 14:19:00,
2013-03-30 07:24:00,36.5,24.8,30.20,SSE,158,0.0,1.1,62,0.00,,,0.00,WUHU216HW,2013-03-30 14:24:00,
2013-03-30 07:29:00,36.9,25.1,30.20,SSE,158,0.0,1.1,62,0.00,,,0.00,WUHU216HW,2013-03-30 14:29:00,
2013-03-30 07:34:00,37.4,25.6,30.19,SSE,158,0.0,0.0,62,0.00,,,0.00,WUHU216HW,2013-03-30 14:34:00,
2013-03-30 07:39:00,37.8,26.3,30.20,SSW,203,0.0,0.0,63,0.00,,,0.00,WUHU216HW,2013-03-30 14:39:00,
2013-03-30 07:44:00,38.3,26.8,30.20,SSW,203,0.0,0.0,63,0.00,,,0.00,WUHU216HW,2013-03-30 14:44:00,
2013-03-30 07:49:00,38.7,27.1,30.20,SSW,203,0.0,0.0,63,0.00,,,0.00,WUHU216HW,2013-03-30 14:49:00,
2013-03-30 07:54:00,39.2,27.6,30.20,North,0,0.0,1.1,63,0.00,,,0.00,WUHU216HW,2013-03-30 14:54:00,
2013-03-30 07:59:00,40.0,28.4,30.20,NNW,338,1.6,2.0,63,0.00,,,0.00,WUHU216HW,2013-03-30 14:59:00,
2013-03-30 08:04:00,40.7,28.6,30.20,NW,315,2.5,2.9,62,0.00,,,0.00,WUHU216HW,2013-03-30 15:04:00,
2013-03-30 08:09:00,41.4,28.6,30.20,NNW,338,2.0,2.9,60,0.00,,,0.00,WUHU216HW,2013-03-30 15:09:00,
2013-03-30 08:14:00,42.1,28.8,30.20,NW,315,1.8,2.9,59,0.00,,,0.00,WUHU216HW,2013-03-30 15:14:00,
2013-03-30 08:19:00,42.8,29.0,30.20,NW,315,2.2,2.5,58,0.00,,,0.00,WUHU216HW,2013-03-30 15:19:00,
2013-03-30 08:24:00,43.6,29.7,30.20,NW,315,2.7,2.7,58,0.00,,,0.00,WUHU216HW,2013-03-30 15:24:00,
2013-03-30 08:29:00,44.5,30.2,30.20,North,0,1.6,2.7,57,0.00,,,0.00,WUHU216HW,2013-03-30 15:29:00,
2013-03-30 08:34:00,45.5,31.1,30.20,NNW,338,2.7,2.7,57,0.00,,,0.00,WUHU216HW,2013-03-30 15:34:00,
2013-03-30 08:39:00,46.4,31.1,30.20,North,0,1.1,4.0,55,0.00,,,0.00,WUHU216HW,2013-03-30 15:39:00,
2013-03-30 08:44:00,47.5,31.6,30.19,NNW,338,1.8,4.0,54,0.00,,,0.00,WUHU216HW,2013-03-30 15:44:00,
2013-03-30 08:49:00,48.4,32.1,30.19,NNW,338,2.7,3.1,53,0.00,,,0.00,WUHU216HW,2013-03-30 15:49:00,
2013-03-30 08:54:00,49.1,32.2,30.19,North,0,1.6,3.6,52,0.00,,,0.00,WUHU216HW,2013-03-30 15:54:00,
2013-03-30 08:59:00,50.0,32.7,30.19,NNW,338,2.7,3.6,51,0.00,,,0.00,WUHU216HW,2013-03-30 15:59:00,
2013-03-30 09:04:00,50.9,33.0,30.19,WNW,293,1.8,3.6,50,0.00,,,0.00,WUHU216HW,2013-03-30 16:04:00,
2013-03-30 09:09:00,51.5,32.4,30.19,NW,315,0.7,3.4,48,0.00,,,0.00,WUHU216HW,2013-03-30 16:09:00,
2013-03-30 09:14:00,52.4,32.7,30.20,West,270,1.6,3.4,47,0.00,,,0.00,WUHU216HW,2013-03-30 16:14:00,
2013-03-30 09:19:00,53.1,32.8,30.20,ESE,113,0.9,1.8,46,0.00,,,0.00,WUHU216HW,2013-03-30 16:19:00,
2013-03-30 09:24:00,53.8,32.9,30.20,North,0,0.7,1.6,45,0.00,,,0.00,WUHU216HW,2013-03-30 16:24:00,
2013-03-30 09:29:00,54.4,33.3,30.19,NNW,338,1.8,2.9,45,0.00,,,0.00,WUHU216HW,2013-03-30 16:29:00,
2013-03-30 09:34:00,55.4,33.8,30.19,NNW,338,2.7,2.9,44,0.00,,,0.00,WUHU216HW,2013-03-30 16:34:00,
2013-03-30 09:39:00,56.0,34.2,30.20,NW,315,1.1,2.7,44,0.00,,,0.00,WUHU216HW,2013-03-30 16:39:00,
2013-03-30 09:44:00,56.7,34.4,30.20,WNW,293,2.2,2.7,43,0.00,,,0.00,WUHU216HW,2013-03-30 16:44:00,
2013-03-30 09:49:00,57.2,33.7,30.20,West,270,1.8,3.1,41,0.00,,,0.00,WUHU216HW,2013-03-30 16:49:00,
2013-03-30 09:54:00,58.0,34.4,30.20,ESE,113,2.5,3.1,41,0.00,,,0.00,WUHU216HW,2013-03-30 16:54:00,
2013-03-30 09:59:00,58.7,34.4,30.19,West,270,1.8,2.5,40,0.00,,,0.00,WUHU216HW,2013-03-30 16:59:00,
2013-03-30 10:04:00,59.4,34.4,30.20,East,90,2.7,3.1,39,0.00,,,0.00,WUHU216HW,2013-03-30 17:04:00,
2013-03-30 10:09:00,59.9,34.1,30.20,ENE,68,1.6,3.1,38,0.00,,,0.00,WUHU216HW,2013-03-30 17:09:00,
2013-03-30 10:14:00,60.7,31.9,30.20,NW,315,3.4,3.6,34,0.00,,,0.00,WUHU216HW,2013-03-30 17:14:00,
2013-03-30 10:19:00,60.8,32.0,30.19,North,0,1.8,3.6,34,0.00,,,0.00,WUHU216HW,2013-03-30 17:19:00,
2013-03-30 10:24:00,61.4,32.5,30.19,NW,315,2.2,3.4,34,0.00,,,0.00,WUHU216HW,2013-03-30 17:24:00,
2013-03-30 10:29:00,61.7,32.1,30.19,West,270,1.1,6.7,33,0.00,,,0.00,WUHU216HW,2013-03-30 17:29:00,
2013-03-30 10:34:00,62.1,31.8,30.19,WSW,248,2.2,8.1,32,0.00,,,0.00,WUHU216HW,2013-03-30 17:34:00,
2013-03-30 10:39:00,62.1,31.1,30.19,WSW,248,8.5,10.3,31,0.00,,,0.00,WUHU216HW,2013-03-30 17:39:00,
2013-03-30 10:44:00,62.3,31.9,30.20,NNW,338,2.2,10.3,32,0.00,,,0.00,WUHU216HW,2013-03-30 17:44:00,
2013-03-30 10:49:00,62.6,32.2,30.20,South,180,6.3,12.5,32,0.00,,,0.00,WUHU216HW,2013-03-30 17:49:00,
2013-03-30 10:54:00,62.8,31.7,30.20,West,270,4.5,12.5,31,0.00,,,0.00,WUHU216HW,2013-03-30 17:54:00,
2013-03-30 10:59:00,63.0,30.2,30.20,South,180,7.2,12.1,29,0.00,,,0.00,WUHU216HW,2013-03-30 17:59:00,
2013-03-30 11:04:00,63.0,31.2,30.20,NW,315,2.2,9.8,30,0.00,,,0.00,WUHU216HW,2013-03-30 18:04:00,
2013-03-30 11:09:00,63.0,31.2,30.20,SW,225,6.7,9.8,30,0.00,,,0.00,WUHU216HW,2013-03-30 18:09:00,
2013-03-30 11:14:00,63.0,31.2,30.20,SE,135,9.6,10.5,30,0.00,,,0.00,WUHU216HW,2013-03-30 18:14:00,
2013-03-30 11:19:00,63.0,30.2,30.20,South,180,6.9,11.2,29,0.00,,,0.00,WUHU216HW,2013-03-30 18:19:00,
2013-03-30 11:24:00,63.4,31.4,30.19,WNW,293,3.1,11.2,30,0.00,,,0.00,WUHU216HW,2013-03-30 18:24:00,
2013-03-30 11:29:00,63.7,30.8,30.19,SSE,158,3.1,6.9,29,0.00,,,0.00,WUHU216HW,2013-03-30 18:29:00,
2013-03-30 11:34:00,64.3,32.2,30.19,SW,225,1.6,9.2,30,0.00,,,0.00,WUHU216HW,2013-03-30 18:34:00,
2013-03-30 11:39:00,64.4,32.4,30.19,SW,225,4.9,9.2,30,0.00,,,0.00,WUHU216HW,2013-03-30 18:39:00,
2013-03-30 11:44:00,64.6,31.6,30.19,West,270,6.9,9.2,29,0.00,,,0.00,WUHU216HW,2013-03-30 18:44:00,
2013-03-30 11:49:00,64.4,31.4,30.19,WSW,248,3.8,8.5,29,0.00,,,0.00,WUHU216HW,2013-03-30 18:49:00,
2013-03-30 11:54:00,64.3,31.2,30.19,WNW,293,5.6,8.5,29,0.00,,,0.00,WUHU216HW,2013-03-30 18:54:00,
2013-03-30 11:59:00,64.4,31.4,30.19,SSW,203,5.6,11.0,29,0.00,,,0.00,WUHU216HW,2013-03-30 18:59:00,
2013-03-30 12:04:00,64.8,31.8,30.19,SW,225,6.5,11.0,29,0.00,,,0.00,WUHU216HW,2013-03-30 19:04:00,
2013-03-30 12:09:00,65.2,32.0,30.19,SSW,203,3.8,9.2,29,0.00,,,0.00,WUHU216HW,2013-03-30 19:09:00,
2013-03-30 12:14:00,65.5,31.4,30.19,South,180,4.5,9.2,28,0.00,,,0.00,WUHU216HW,2013-03-30 19:14:00,
2013-03-30 12:19:00,65.7,31.5,30.19,SSW,203,3.4,10.5,28,0.00,,,0.00,WUHU216HW,2013-03-30 19:19:00,
2013-03-30 12:24:00,65.9,30.7,30.19,WSW,248,6.9,10.5,27,0.00,,,0.00,WUHU216HW,2013-03-30 19:24:00,
2013-03-30 12:29:00,65.9,31.7,30.18,SE,135,6.9,9.8,28,0.00,,,0.00,WUHU216HW,2013-03-30 19:29:00,
2013-03-30 12:34:00,66.1,31.9,30.18,SSW,203,2.5,11.6,28,0.00,,,0.00,WUHU216HW,2013-03-30 19:34:00,
2013-03-30 12:39:00,66.2,32.1,30.18,WSW,248,4.3,11.6,28,0.00,,,0.00,WUHU216HW,2013-03-30 19:39:00,
2013-03-30 12:44:00,66.4,30.2,30.18,SW,225,3.4,6.9,26,0.00,,,0.00,WUHU216HW,2013-03-30 19:44:00,
2013-03-30 12:49:00,66.6,30.3,30.18,SSE,158,4.3,10.5,26,0.00,,,0.00,WUHU216HW,2013-03-30 19:49:00,
2013-03-30 12:54:00,66.4,30.2,30.18,SSE,158,7.6,10.5,26,0.00,,,0.00,WUHU216HW,2013-03-30 19:54:00,
2013-03-30 12:59:00,66.4,30.2,30.17,West,270,5.4,7.6,26,0.00,,,0.00,WUHU216HW,2013-03-30 19:59:00,
2013-03-30 13:04:00,66.2,30.0,30.17,SW,225,3.1,9.8,26,0.00,,,0.00,WUHU216HW,2013-03-30 20:04:00,
2013-03-30 13:09:00,66.1,29.8,30.17,SW,225,5.1,9.8,26,0.00,,,0.00,WUHU216HW,2013-03-30 20:09:00,
2013-03-30 13:14:00,66.4,30.2,30.17,West,270,9.4,9.4,26,0.00,,,0.00,WUHU216HW,2013-03-30 20:14:00,
2013-03-30 13:19:00,66.2,30.0,30.17,SSE,158,3.8,9.4,26,0.00,,,0.00,WUHU216HW,2013-03-30 20:19:00,
2013-03-30 13:24:00,66.1,29.8,30.17,SW,225,8.9,13.2,26,0.00,,,0.00,WUHU216HW,2013-03-30 20:24:00,
2013-03-30 13:29:00,65.9,29.7,30.17,WSW,248,7.8,13.2,26,0.00,,,0.00,WUHU216HW,2013-03-30 20:29:00,
2013-03-30 13:34:00,65.5,29.3,30.16,NW,315,2.7,9.8,26,0.00,,,0.00,WUHU216HW,2013-03-30 20:34:00,
2013-03-30 13:39:00,65.0,28.9,30.17,WSW,248,5.6,8.5,26,0.00,,,0.00,WUHU216HW,2013-03-30 20:39:00,
2013-03-30 13:44:00,64.8,27.7,30.16,NNW,338,3.6,8.5,25,0.00,,,0.00,WUHU216HW,2013-03-30 20:44:00,
2013-03-30 13:49:00,64.6,28.6,30.16,WSW,248,5.4,9.2,26,0.00,,,0.00,WUHU216HW,2013-03-30 20:49:00,
2013-03-30 13:54:00,65.2,29.1,30.16,WSW,248,2.9,9.2,26,0.00,,,0.00,WUHU216HW,2013-03-30 20:54:00,
2013-03-30 13:59:00,65.9,29.7,30.16,SW,225,3.4,7.2,26,0.00,,,0.00,WUHU216HW,2013-03-30 20:59:00,
2013-03-30 14:04:00,66.1,29.8,30.16,WSW,248,2.9,6.7,26,0.00,,,0.00,WUHU216HW,2013-03-30 21:04:00,
2013-03-30 14:09:00,66.4,30.2,30.16,West,270,3.8,6.7,26,0.00,,,0.00,WUHU216HW,2013-03-30 21:09:00,
2013-03-30 14:14:00,66.2,29.0,30.16,NW,315,3.6,9.8,25,0.00,,,0.00,WUHU216HW,2013-03-30 21:14:00,
2013-03-30 14:19:00,65.9,28.7,30.16,SSW,203,2.2,9.8,25,0.00,,,0.00,WUHU216HW,2013-03-30 21:19:00,
2013-03-30 14:24:00,65.9,29.7,30.16,West,270,2.5,8.3,26,0.00,,,0.00,WUHU216HW,2013-03-30 21:24:00,
2013-03-30 14:29:00,66.1,28.8,30.16,WSW,248,4.7,9.6,25,0.00,,,0.00,WUHU216HW,2013-03-30 21:29:00,
2013-03-30 14:34:00,66.2,29.0,30.16,SSE,158,6.5,9.8,25,0.00,,,0.00,WUHU216HW,2013-03-30 21:34:00,
2013-03-30 14:39:00,66.6,29.3,30.16,West,270,5.6,9.8,25,0.00,,,0.00,WUHU216HW,2013-03-30 21:39:00,
2013-03-30 14:44:00,67.0,29.6,30.15,South,180,9.6,10.3,25,0.00,,,0.00,WUHU216HW,2013-03-30 21:44:00,
2013-03-30 14:49:00,66.8,29.4,30.15,SW,225,4.7,10.3,25,0.00,,,0.00,WUHU216HW,2013-03-30 21:49:00,
2013-03-30 14:54:00,66.8,29.4,30.15,SE,135,5.6,10.3,25,0.00,,,0.00,WUHU216HW,2013-03-30 21:54:00,
2013-03-30 14:59:00,66.6,29.3,30.15,West,270,3.1,9.4,25,0.00,,,0.00,WUHU216HW,2013-03-30 21:59:00,
2013-03-30 15:04:00,66.4,29.2,30.15,WNW,293,6.0,6.5,25,0.00,,,0.00,WUHU216HW,2013-03-30 22:04:00,
2013-03-30 15:09:00,66.2,29.0,30.15,East,90,1.8,6.5,25,0.00,,,0.00,WUHU216HW,2013-03-30 22:09:00,
2013-03-30 15:14:00,66.2,29.0,30.15,NW,315,5.1,8.5,25,0.00,,,0.00,WUHU216HW,2013-03-30 22:14:00,
2013-03-30 15:19:00,65.9,28.7,30.15,WNW,293,5.4,10.5,25,0.00,,,0.00,WUHU216HW,2013-03-30 22:19:00,
2013-03-30 15:24:00,65.5,28.4,30.14,North,0,3.8,10.5,25,0.00,,,0.00,WUHU216HW,2013-03-30 22:24:00,
2013-03-30 15:29:00,65.0,28.9,30.15,NNW,338,7.2,12.1,26,0.00,,,0.00,WUHU216HW,2013-03-30 22:29:00,
2013-03-30 15:34:00,64.4,27.5,30.15,WSW,248,3.4,12.1,25,0.00,,,0.00,WUHU216HW,2013-03-30 22:34:00,
2013-03-30 15:39:00,64.1,27.2,30.15,WNW,293,6.0,8.7,25,0.00,,,0.00,WUHU216HW,2013-03-30 22:39:00,
2013-03-30 15:44:00,64.1,28.2,30.15,West,270,3.8,7.4,26,0.00,,,0.00,WUHU216HW,2013-03-30 22:44:00,
2013-03-30 15:49:00,63.9,27.0,30.14,WNW,293,6.7,9.8,25,0.00,,,0.00,WUHU216HW,2013-03-30 22:49:00,
2013-03-30 15:54:00,63.5,26.7,30.14,WSW,248,5.4,9.8,25,0.00,,,0.00,WUHU216HW,2013-03-30 22:54:00,
2013-03-30 15:59:00,63.4,26.6,30.14,NW,315,3.1,8.1,25,0.00,,,0.00,WUHU216HW,2013-03-30 22:59:00,
2013-03-30 16:04:00,63.5,27.6,30.14,NNW,338,1.1,8.1,26,0.00,,,0.00,WUHU216HW,2013-03-30 23:04:00,
2013-03-30 16:09:00,63.7,28.8,30.14,WNW,293,2.9,5.4,27,0.00,,,0.00,WUHU216HW,2013-03-30 23:09:00,
2013-03-30 16:14:00,64.1,28.2,30.14,WSW,248,6.3,8.3,26,0.00,,,0.00,WUHU216HW,2013-03-30 23:14:00,
2013-03-30 16:19:00,63.9,27.0,30.14,SW,225,2.5,8.3,25,0.00,,,0.00,WUHU216HW,2013-03-30 23:19:00,
2013-03-30 16:24:00,63.9,28.0,30.13,WSW,248,6.5,6.5,26,0.00,,,0.00,WUHU216HW,2013-03-30 23:24:00,
2013-03-30 16:29:00,63.9,27.0,30.13,SW,225,4.5,6.5,25,0.00,,,0.00,WUHU216HW,2013-03-30 23:29:00,
2013-03-30 16:34:00,63.9,27.0,30.13,NNW,338,5.4,7.8,25,0.00,,,0.00,WUHU216HW,2013-03-30 23:34:00,
2013-03-30 16:39:00,63.7,26.8,30.13,West,270,4.0,7.8,25,0.00,,,0.00,WUHU216HW,2013-03-30 23:39:00,
2013-03-30 16:44:00,63.5,26.7,30.13,SW,225,4.0,6.0,25,0.00,,,0.00,WUHU216HW,2013-03-30 23:44:00,
2013-03-30 16:49:00,63.5,26.7,30.13,SSW,203,8.5,8.5,25,0.00,,,0.00,WUHU216HW,2013-03-30 23:49:00,
2013-03-30 16:54:00,63.5,26.7,30.13,SSW,203,4.5,8.5,25,0.00,,,0.00,WUHU216HW,2013-03-30 23:54:00,
2013-03-30 16:59:00,63.0,26.2,30.13,WSW,248,2.5,8.5,25,0.00,,,0.00,WUHU216HW,2013-03-30 23:59:00,
2013-03-30 17:04:00,62.8,27.1,30.13,SSW,203,4.7,6.3,26,0.00,,,0.00,WUHU216HW,2013-03-31 00:04:00,
2013-03-30 17:09:00,62.6,26.9,30.13,WNW,293,4.7,6.7,26,0.00,,,0.00,WUHU216HW,2013-03-31 00:09:00,
2013-03-30 17:14:00,62.5,25.7,30.13,WSW,248,4.0,6.7,25,0.00,,,0.00,WUHU216HW,2013-03-31 00:14:00,
2013-03-30 17:19:00,62.5,26.7,30.13,West,270,2.2,6.3,26,0.00,,,0.00,WUHU216HW,2013-03-31 00:19:00,
2013-03-30 17:24:00,62.1,25.5,30.13,NW,315,5.4,7.2,25,0.00,,,0.00,WUHU216HW,2013-03-31 00:24:00,
2013-03-30 17:29:00,61.6,25.9,30.13,NW,315,4.7,8.3,26,0.00,,,0.00,WUHU216HW,2013-03-31 00:29:00,
2013-03-30 17:34:00,61.4,25.8,30.13,West,270,6.9,8.3,26,0.00,,,0.00,WUHU216HW,2013-03-31 00:34:00,
2013-03-30 17:39:00,61.0,26.5,30.13,WSW,248,4.0,9.2,27,0.00,,,0.00,WUHU216HW,2013-03-31 00:39:00,
2013-03-30 17:44:00,60.8,26.3,30.13,West,270,5.4,9.2,27,0.00,,,0.00,WUHU216HW,2013-03-31 00:44:00,
2013-03-30 17:49:00,60.5,27.0,30.13,South,180,1.8,8.5,28,0.00,,,0.00,WUHU216HW,2013-03-31 00:49:00,
2013-03-30 17:54:00,60.3,26.8,30.13,NW,315,3.1,7.4,28,0.00,,,0.00,WUHU216HW,2013-03-31 00:54:00,
2013-03-30 17:59:00,60.1,26.6,30.13,West,270,3.1,7.6,28,0.00,,,0.00,WUHU216HW,2013-03-31 00:59:00,
2013-03-30 18:04:00,59.9,26.6,30.13,West,270,3.8,7.6,28,0.00,,,0.00,WUHU216HW,2013-03-31 01:04:00,
2013-03-30 18:09:00,59.6,26.2,30.13,WNW,293,5.1,6.5,28,0.00,,,0.00,WUHU216HW,2013-03-31 01:09:00,
2013-03-30 18:14:00,59.4,26.1,30.13,WNW,293,3.1,6.9,28,0.00,,,0.00,WUHU216HW,2013-03-31 01:14:00,
2013-03-30 18:19:00,59.2,25.9,30.14,WNW,293,2.2,6.9,28,0.00,,,0.00,WUHU216HW,2013-03-31 01:19:00,
2013-03-30 18:24:00,59.0,26.7,30.13,West,270,4.0,6.0,29,0.00,,,0.00,WUHU216HW,2013-03-31 01:24:00,
2013-03-30 18:29:00,58.9,26.6,30.13,WSW,248,2.5,7.6,29,0.00,,,0.00,WUHU216HW,2013-03-31 01:29:00,
2013-03-30 18:34:00,58.7,26.5,30.13,SW,225,5.4,7.6,29,0.00,,,0.00,WUHU216HW,2013-03-31 01:34:00,
2013-03-30 18:39:00,58.5,26.3,30.14,WSW,248,2.5,6.3,29,0.00,,,0.00,WUHU216HW,2013-03-31 01:39:00,
2013-03-30 18:44:00,58.1,25.9,30.14,WNW,293,4.0,6.9,29,0.00,,,0.00,WUHU216HW,2013-03-31 01:44:00,
2013-03-30 18:49:00,58.0,26.7,30.14,WSW,248,0.7,6.9,30,0.00,,,0.00,WUHU216HW,2013-03-31 01:49:00,
2013-03-30 18:54:00,58.0,26.7,30.14,SW,225,1.3,4.0,30,0.00,,,0.00,WUHU216HW,2013-03-31 01:54:00,
2013-03-30 18:59:00,58.0,26.7,30.14,WSW,248,1.1,3.4,30,0.00,,,0.00,WUHU216HW,2013-03-31 01:59:00,
2013-03-30 19:04:00,57.8,26.6,30.14,SW,225,0.0,2.5,30,0.00,,,0.00,WUHU216HW,2013-03-31 02:04:00,
2013-03-30 19:09:00,57.6,27.1,30.14,SW,225,0.0,2.5,31,0.00,,,0.00,WUHU216HW,2013-03-31 02:09:00,
2013-03-30 19:14:00,57.4,27.0,30.14,WSW,248,0.7,1.3,31,0.00,,,0.00,WUHU216HW,2013-03-31 02:14:00,
2013-03-30 19:19:00,57.2,26.8,30.14,SW,225,1.1,1.3,31,0.00,,,0.00,WUHU216HW,2013-03-31 02:19:00,
2013-03-30 19:24:00,57.2,26.8,30.14,WSW,248,1.3,1.8,31,0.00,,,0.00,WUHU216HW,2013-03-31 02:24:00,
2013-03-30 19:29:00,56.9,27.2,30.14,SSW,203,0.4,1.8,32,0.00,,,0.00,WUHU216HW,2013-03-31 02:29:00,
2013-03-30 19:34:00,56.7,27.0,30.14,SSW,203,0.7,1.3,32,0.00,,,0.00,WUHU216HW,2013-03-31 02:34:00,
2013-03-30 19:39:00,56.3,27.4,30.14,South,180,1.8,1.8,33,0.00,,,0.00,WUHU216HW,2013-03-31 02:39:00,
2013-03-30 19:44:00,56.0,27.1,30.14,SSW,203,0.0,1.8,33,0.00,,,0.00,WUHU216HW,2013-03-31 02:44:00,
2013-03-30 19:49:00,55.6,27.5,30.15,SSW,203,0.0,1.1,34,0.00,,,0.00,WUHU216HW,2013-03-31 02:49:00,
2013-03-30 19:54:00,55.3,27.2,30.15,SSW,203,0.0,0.0,34,0.00,,,0.00,WUHU216HW,2013-03-31 02:54:00,
2013-03-30 19:59:00,54.7,26.6,30.15,SSW,203,0.0,0.0,34,0.00,,,0.00,WUHU216HW,2013-03-31 02:59:00,
2013-03-30 20:04:00,54.4,27.7,30.15,SSW,203,1.3,1.3,36,0.00,,,0.00,WUHU216HW,2013-03-31 03:04:00,
2013-03-30 20:09:00,53.6,27.2,30.15,South,180,1.8,2.0,36,0.00,,,0.00,WUHU216HW,2013-03-31 03:09:00,
2013-03-30 20:14:00,53.1,26.6,30.15,SSW,203,1.6,2.0,36,0.00,,,0.00,WUHU216HW,2013-03-31 03:14:00,
2013-03-30 20:19:00,52.6,26.8,30.15,South,180,1.3,2.2,37,0.00,,,0.00,WUHU216HW,2013-03-31 03:19:00,
2013-03-30 20:24:00,51.8,26.2,30.15,SSE,158,2.2,2.9,37,0.00,,,0.00,WUHU216HW,2013-03-31 03:24:00,
2013-03-30 20:29:00,51.3,26.4,30.15,SSE,158,2.0,2.9,38,0.00,,,0.00,WUHU216HW,2013-03-31 03:29:00,
2013-03-30 20:34:00,50.6,25.7,30.15,SSE,158,1.8,3.4,38,0.00,,,0.00,WUHU216HW,2013-03-31 03:34:00,
2013-03-30 20:39:00,50.0,25.9,30.15,SSE,158,1.8,3.4,39,0.00,,,0.00,WUHU216HW,2013-03-31 03:39:00,
2013-03-30 20:44:00,49.3,24.7,30.15,SSE,158,2.0,3.4,38,0.00,,,0.00,WUHU216HW,2013-03-31 03:44:00,
2013-03-30 20:49:00,49.0,24.3,30.16,South,180,2.5,3.1,38,0.00,,,0.00,WUHU216HW,2013-03-31 03:49:00,
2013-03-30 20:54:00,48.4,24.5,30.16,South,180,3.1,3.1,39,0.00,,,0.00,WUHU216HW,2013-03-31 03:54:00,
2013-03-30 20:59:00,47.9,24.0,30.16,SSE,158,1.8,3.8,39,0.00,,,0.00,WUHU216HW,2013-03-31 03:59:00,
2013-03-30 21:00:00,47.9,24.0,30.16,SSE,158,1.8,3.8,39,0.00,,,0.00,WUHU216HW,2013-03-31 04:00:00,
2013-03-30 21:05:00,47.3,24.2,30.15,South,180,0.9,3.4,40,0.00,,,0.00,WUHU216HW,2013-03-31 04:05:00,
2013-03-30 21:10:00,46.8,23.8,30.16,South,180,1.8,2.9,40,0.00,,,0.00,WUHU216HW,2013-03-31 04:10:00,
2013-03-30 21:15:00,46.3,23.8,30.16,SSE,158,2.0,2.9,41,0.00,,,0.00,WUHU216HW,2013-03-31 04:15:00,
2013-03-30 21:20:00,45.9,24.0,30.16,South,180,1.1,2.7,42,0.00,,,0.00,WUHU216HW,2013-03-31 04:20:00,
2013-03-30 21:25:00,45.4,23.5,30.16,SSW,203,2.5,2.5,42,0.00,,,0.00,WUHU216HW,2013-03-31 04:25:00,
2013-03-30 21:30:00,45.0,23.8,30.16,SW,225,1.1,2.9,43,0.00,,,0.00,WUHU216HW,2013-03-31 04:30:00,
2013-03-30 21:35:00,44.8,24.1,30.16,SW,225,2.2,3.8,44,0.00,,,0.00,WUHU216HW,2013-03-31 04:35:00,
2013-03-30 21:40:00,44.5,23.8,30.16,SSW,203,2.5,4.5,44,0.00,,,0.00,WUHU216HW,2013-03-31 04:40:00,
2013-03-30 21:45:00,44.3,24.1,30.16,SSW,203,2.0,4.7,45,0.00,,,0.00,WUHU216HW,2013-03-31 04:45:00,
2013-03-30 21:50:00,44.3,24.1,30.16,SW,225,2.5,4.7,45,0.00,,,0.00,WUHU216HW,2013-03-31 04:50:00,
2013-03-30 21:55:00,44.3,24.1,30.16,WSW,248,2.5,4.0,45,0.00,,,0.00,WUHU216HW,2013-03-31 04:55:00,
2013-03-30 22:00:00,44.1,24.6,30.16,West,270,5.4,5.4,46,0.00,,,0.00,WUHU216HW,2013-03-31 05:00:00,
2013-03-30 22:05:00,44.3,24.7,30.16,West,270,3.6,5.4,46,0.00,,,0.00,WUHU216HW,2013-03-31 05:05:00,
2013-03-30 22:10:00,44.3,24.7,30.16,SW,225,3.4,5.8,46,0.00,,,0.00,WUHU216HW,2013-03-31 05:10:00,
2013-03-30 22:15:00,44.5,24.8,30.16,SW,225,5.6,5.8,46,0.00,,,0.00,WUHU216HW,2013-03-31 05:15:00,
2013-03-30 22:20:00,44.5,24.8,30.16,WSW,248,2.0,5.6,46,0.00,,,0.00,WUHU216HW,2013-03-31 05:20:00,
2013-03-30 22:25:00,44.3,24.7,30.16,SSW,203,3.4,5.6,46,0.00,,,0.00,WUHU216HW,2013-03-31 05:25:00,
2013-03-30 22:30:00,44.3,24.7,30.16,WSW,248,3.1,5.4,46,0.00,,,0.00,WUHU216HW,2013-03-31 05:30:00,
2013-03-30 22:35:00,44.3,24.7,30.16,SSW,203,4.7,5.4,46,0.00,,,0.00,WUHU216HW,2013-03-31 05:35:00,
2013-03-30 22:40:00,44.1,25.1,30.16,WSW,248,5.4,6.9,47,0.00,,,0.00,WUHU216HW,2013-03-31 05:40:00,
2013-03-30 22:45:00,44.3,25.2,30.16,West,270,4.0,6.9,47,0.00,,,0.00,WUHU216HW,2013-03-31 05:45:00,
2013-03-30 22:50:00,44.3,25.2,30.16,SW,225,2.9,6.5,47,0.00,,,0.00,WUHU216HW,2013-03-31 05:50:00,
2013-03-30 22:55:00,44.1,25.1,30.16,WSW,248,3.8,6.5,47,0.00,,,0.00,WUHU216HW,2013-03-31 05:55:00,
2013-03-30 23:00:00,43.9,24.9,30.16,SW,225,5.1,6.5,47,0.00,,,0.00,WUHU216HW,2013-03-31 06:00:00,
2013-03-30 23:05:00,43.7,24.8,30.16,West,270,5.4,8.5,47,0.00,,,0.00,WUHU216HW,2013-03-31 06:05:00,
2013-03-30 23:10:00,43.6,25.1,30.16,WSW,248,4.7,8.5,48,0.00,,,0.00,WUHU216HW,2013-03-31 06:10:00,
2013-03-30 23:15:00,43.6,25.1,30.16,WSW,248,4.9,7.6,48,0.00,,,0.00,WUHU216HW,2013-03-31 06:15:00,
2013-03-30 23:20:00,43.4,24.9,30.16,SW,225,4.3,7.8,48,0.00,,,0.00,WUHU216HW,2013-03-31 06:20:00,
2013-03-30 23:25:00,43.0,24.7,30.15,West,270,3.4,7.8,48,0.00,,,0.00,WUHU216HW,2013-03-31 06:25:00,
2013-03-30 23:30:00,43.0,24.7,30.15,SSW,203,4.0,7.6,48,0.00,,,0.00,WUHU216HW,2013-03-31 06:30:00,
2013-03-30 23:35:00,43.0,25.2,30.16,WSW,248,3.6,5.6,49,0.00,,,0.00,WUHU216HW,2013-03-31 06:35:00,
2013-03-30 23:40:00,43.2,24.9,30.16,SSW,203,7.2,7.2,48,0.00,,,0.00,WUHU216HW,2013-03-31 06:40:00,
2013-03-30 23:45:00,43.2,25.4,30.16,SSW,203,4.7,9.2,49,0.00,,,0.00,WUHU216HW,2013-03-31 06:45:00,
2013-03-30 23:50:00,43.2,25.4,30.15,West,270,5.8,9.2,49,0.00,,,0.00,WUHU216HW,2013-03-31 06:50:00,
2013-03-30 23:55:00,43.0,25.2,30.15,West,270,6.3,6.7,49,0.00,,,0.00,WUHU216HW,2013-03-31 06:55:00,